Location: Unspecified
(0.0000°N, 0.0000°E)
Time: 14:02:30
(UTC+00:00)

Envisat - Pass Details

Date: 17 September 2019
Orbit: 764 x 766 km, 98.1° (Epoch: 18 September)

Event Time Altitude Azimuth Distance (km) Brightness Sun altitude
Rises 19:21:24 0° 191° (S) 3,230 6.3 -21.7°
Reaches altitude 10° 19:24:05 10° 204° (SSW) 2,301 5.7 -22.4°
Maximum altitude 19:28:08 24° 258° (WSW) 1,528 5.3 -23.4°
Drops below altitude 10° 19:32:11 10° 311° (NW) 2,293 6.1 -24.4°
Sets 19:34:52 0° 325° (NW) 3,215 6.7 -25.1°
